STARLINK-36872

Last updated on Fri Mar 27 2026 00:02:06 GMT+0000 (Coordinated Universal Time)

1 67955U 26037Z 26085.50002314 .00114310 00000+0 19311-2 0 9992 2 67955 43.0001 96.8015 0001206 283.1714 301.3020 15.50503996 5902
UTC large
Height (km)
Speed (km/s)
/
Latitude / Longitude
Inclination (degrees)
Orbital Period (minutes)
Azimuth
Elevation
Range (km)
Doppler Factor

Next 0 passes for location: London (51.5072 / 0.1276)

Sorry there are no passes over London.